Location: Unspecified
(0.0000°N, 0.0000°E)
Time: 19:38:03
(UTC+00:00)

ISS - Pass Details

Date: 03 September 2021
Orbit: 414 x 429 km, 51.6° (Epoch: 8 February)

Event Time Altitude Azimuth Distance (km) Brightness Sun altitude
Rises 09:44:37 0° 235° (SW) 2,371 -0.3 55.6°
Reaches altitude 10° 09:46:59 10° 249° (WSW) 1,489 -1.2 56.2°
Maximum altitude 09:49:44 24° 305° (NW) 900 -2.0 56.9°
Drops below altitude 10° 09:52:28 10° 2° (N) 1,471 -0.7 57.5°
Sets 09:54:47 0° 16° (NNE) 2,336 0.2 58.1°
